Wind_Speed
14 14 13 12 13 14 15 16 18 20 20 22 24 26 29 30 32 34 34 36 37 37 37 35 34 33 33 33 33 33 30 25 26 31 30 26 25 28 30 30 31 33 34
10 9 10 11 13 14 16 17 18 18 20 21 23 26 28 29 31 33 35 37 38 38 38 36 34 34 34 35 37 37 36 32 28 29 31 31 29 26 28 30 32 32 33
10 11 12 13 13 14 15 16 17 18 18 20 22 24 27 29 31 33 35 38 40 41 40 39 38 37 35 36 37 40 41 37 36 32 31 31 32 30 29 29 31 32 33
10 10 11 13 15 16 16 17 17 18 20 21 23 26 29 30 32 34 36 38 39 41 44 43 42 39 36 35 37 40 42 43 43 40 38 36 35 34 33 32 31 33 33
15 16 18 19 19 20 19 18 17 18 19 20 21 23 26 30 32 33 35 37 40 41 44 46 45 42 39 37 38 41 44 44 45 45 44 43 40 40 40 39 38 37 35
16 17 19 20 20 22 24 20 16 16 16 16 17 21 25 29 33 36 38 39 41 44 45 47 49 46 43 40 39 40 44 47 49 48 47 45 44 42 42 44 44 44 43
14 14 16 19 22 23 27 27 22 17 15 17 20 24 27 31 34 37 38 41 43 45 47 50 51 52 48 45 43 43 45 47 48 50 51 51 49 49 49 49 50 48 48
12 13 15 17 20 22 24 27 27 24 22 22 24 27 31 33 36 37 39 46 48 51 51 52 54 54 51 46 46 47 48 48 49 50 51 52 54 54 54 54 52 53 53
12 14 16 18 20 22 23 25 27 27 27 28 27 29 31 32 34 40 43 46 48 52 55 58 58 58 53 50 49 49 50 49 49 50 51 52 55 57 57 58 59 59 59
11 14 17 20 21 22 23 23 25 26 26 29 33 30 31 33 35 38 45 49 50 54 57 60 63 64 58 54 52 51 51 51 51 52 53 55 57 59 60 59 59 60 61
11 12 16 18 21 22 23 24 25 26 29 30 31 33 36 37 39 41 43 46 50 54 57 61 64 69 66 59 55 53 52 52 52 53 55 55 56 57 59 62 65 64 67
14 15 17 19 21 23 25 26 28 29 30 31 33 35 37 40 44 46 48 50 50 53 55 61 65 68 68 63 58 54 52 53 53 53 55 56 56 58 59 61 64 67 69
19 19 19 20 23 25 27 29 30 31 32 34 36 39 42 44 47 49 52 54 56 57 55 59 64 67 68 65 59 55 52 52 52 54 56 58 58 58 62 65 68 73 76
21 21 22 22 25 28 29 31 33 35 37 38 40 42 44 48 51 53 56 59 59 61 62 63 59 65 68 63 59 53 51 53 54 55 57 58 60 63 67 72 76 79 78
23 23 23 24 26 29 31 32 34 37 40 42 43 45 47 49 53 57 59 62 65 66 65 67 66 65 67 63 58 54 53 53 55 56 59 62 68 69 71 75 78 69 61
24 24 25 26 27 30 31 33 36 38 41 44 46 48 50 53 56 59 62 64 68 71 71 72 71 73 68 66 60 56 53 54 56 59 62 67 68 71 74 72 58 47 42
25 25 26 28 29 31 33 34 37 39 42 45 48 50 53 55 59 62 65 67 69 74 75 73 70 70 69 66 61 58 56 57 59 62 67 68 69 70 66 50 42 39 40
27 27 28 30 31 33 35 37 39 41 45 48 50 52 55 57 60 64 67 71 72 76 78 77 73 73 68 67 61 57 57 61 63 67 70 71 67 60 48 41 38 38 38
28 30 31 33 35 37 39 41 43 45 48 51 53 55 58 60 63 66 69 74 75 77 80 80 77 74 69 65 61 60 59 62 67 69 70 68 59 48 41 36 36 37 38
31 33 34 36 39 41 42 45 47 49 51 54 55 58 60 62 64 68 70 76 77 78 81 80 77 74 69 64 60 58 58 65 69 71 71 60 49 41 37 36 36 37 38
35 37 37 39 42 44 46 48 50 52 54 57 58 60 63 66 68 71 73 78 79 80 80 77 76 71 65 61 58 59 60 63 67 70 66 51 45 41 39 37 38 39 39
40 42 41 42 44 46 48 51 53 56 57 59 61 64 66 68 70 74 76 81 81 82 80 79 76 70 64 61 59 60 62 65 67 67 57 43 43 40 40 39 39 40 41
45 46 46 45 47 49 51 53 55 58 60 62 63 66 68 71 72 76 79 82 82 83 81 81 74 67 61 59 59 60 64 68 70 67 55 43 42 40 40 40 43 44 43
49 51 50 49 49 52 54 56 58 60 63 65 66 68 70 73 75 78 81 80 81 80 78 75 68 64 59 59 61 61 64 66 67 62 54 43 41 41 41 40 45 45 45
53 54 53 52 52 55 57 60 61 63 66 67 69 69 72 74 77 79 82 79 78 77 77 71 67 63 61 60 62 63 67 68 68 58 50 45 41 40 38 39 45 47 49
57 58 56 53 55 59 61 63 64 65 68 69 73 72 74 76 78 81 81 80 78 77 74 70 66 62 60 60 63 65 67 69 66 57 51 43 41 42 38 41 46 50 53
Wind_Direction
47 42 38 32 29 24 22 18 12 9 2 360 0 358 357 355 353 352 354 353 353 352 351 347 340 333 327 318 315 310 302 298 299 295 297 297 292 289 286 283 281 280 280
35 33 25 19 16 14 12 7 6 2 1 357 358 357 356 354 354 351 350 347 349 349 347 344 340 334 328 319 315 311 306 297 292 292 293 295 294 288 284 284 281 279 278
35 35 27 21 16 10 5 359 357 354 354 356 356 354 354 353 350 348 345 344 343 343 344 343 340 335 329 322 315 310 309 303 290 285 286 288 288 288 287 281 281 281 278
49 39 31 25 18 10 1 352 343 337 339 343 349 352 354 351 347 344 342 341 343 343 341 339 334 331 327 320 313 307 303 304 305 291 283 283 282 283 283 287 283 279 279
62 56 48 39 29 18 8 358 355 347 344 342 349 353 352 348 347 342 342 340 339 341 339 336 334 332 326 320 312 306 301 299 299 300 295 291 283 281 279 279 283 282 277
63 57 48 40 32 27 22 13 1 357 351 352 349 346 344 341 341 341 340 340 337 338 336 333 331 329 325 318 311 305 299 298 296 295 296 294 292 290 286 284 281 279 278
61 49 42 37 31 27 22 18 15 9 1 353 344 339 337 337 336 338 342 344 341 340 339 335 332 330 324 319 312 306 300 296 293 293 291 291 291 292 292 291 288 283 280
42 36 28 22 13 8 12 15 13 9 3 353 349 344 339 334 330 331 337 340 340 341 341 337 335 331 324 317 312 307 303 300 296 292 289 288 288 287 288 288 286 285 284
26 21 15 12 9 6 360 357 1 5 4 355 347 346 346 341 335 327 327 328 332 335 339 339 338 333 326 317 311 308 306 302 298 296 292 290 289 289 287 287 287 287 285
7 6 4 3 359 356 355 353 350 346 347 350 351 343 341 339 337 339 333 335 330 330 334 335 338 337 331 322 313 308 306 304 301 299 297 295 293 291 289 287 285 282 281
347 350 353 351 348 347 347 346 345 343 343 338 341 344 343 337 336 337 337 337 333 329 332 332 334 338 335 326 315 309 307 304 302 300 298 296 294 293 292 287 285 285 284
323 332 334 335 334 333 336 337 337 337 336 335 333 337 339 339 337 337 336 333 336 332 335 333 333 335 335 328 318 312 309 306 304 302 300 298 297 296 294 291 289 287 286
318 318 318 321 323 325 328 328 329 329 330 332 334 333 334 334 334 335 334 334 334 334 338 333 333 334 334 328 318 315 311 309 307 305 303 301 301 300 298 295 293 290 286
309 308 310 315 317 319 320 322 323 326 328 327 329 331 331 331 331 331 331 332 333 331 334 332 332 333 333 325 318 315 311 309 307 305 303 303 301 298 296 293 289 286 285
303 304 305 307 312 313 316 319 320 322 324 326 325 326 327 328 329 329 329 328 330 331 332 332 332 332 331 324 320 318 315 311 308 307 307 305 302 300 296 292 290 290 290
299 298 302 303 307 310 314 318 319 319 321 324 325 324 325 325 326 326 327 328 328 330 331 332 333 334 331 326 321 319 314 312 312 310 308 306 304 303 298 296 299 294 283
296 295 300 303 308 309 313 314 316 317 318 319 321 323 323 323 324 325 325 328 328 329 330 334 333 332 332 327 322 318 316 315 313 312 312 309 307 305 301 303 299 292 287
292 295 299 302 305 307 309 311 313 315 316 317 319 321 322 322 322 323 325 329 328 329 329 331 332 332 330 325 322 319 317 315 315 315 313 312 311 304 305 303 299 297 294
289 293 297 299 302 306 307 309 311 313 315 315 316 318 319 321 322 323 325 327 327 328 329 331 331 332 327 323 324 321 318 318 319 318 317 315 309 305 302 299 300 300 300
287 290 294 298 300 303 305 307 309 311 312 313 315 317 318 320 321 324 324 326 326 327 330 331 331 330 327 325 324 324 322 323 322 321 318 313 306 302 299 302 301 303 304
286 288 290 294 297 300 302 304 306 308 309 311 314 316 317 320 321 323 323 325 326 327 329 330 332 329 327 325 325 324 325 326 325 321 320 311 305 300 301 305 304 304 303
285 287 289 292 293 297 299 301 303 305 308 310 313 316 317 319 321 322 322 325 324 327 328 330 330 328 327 326 325 325 327 327 325 322 318 304 296 300 302 305 304 305 304
283 286 289 291 292 295 297 299 301 304 307 310 313 315 317 318 320 321 323 323 325 327 329 329 329 327 327 325 324 325 327 328 327 324 318 307 295 294 295 303 306 306 306
280 283 287 290 293 294 296 298 301 305 307 309 311 314 316 318 320 321 321 323 326 327 329 328 326 326 326 324 326 327 328 328 326 323 317 312 304 300 298 300 303 303 304
278 281 285 290 293 293 295 297 301 304 305 308 309 313 315 316 317 318 319 323 325 327 327 326 326 326 325 325 327 326 328 328 328 324 317 315 310 307 303 300 304 305 305
277 281 286 290 291 292 293 296 300 302 303 306 309 313 314 314 315 317 319 324 326 325 325 325 325 325 325 325 326 328 329 328 327 324 319 317 314 312 308 306 309 308 306
Height
5895 5895 5895 5894 5894 5892 5891 5889 5888 5887 5886 5884 5883 5880 5878 5876 5873 5871 5868 5864 5862 5857 5853 5850 5845 5841 5837 5833 5830 5826 5822 5818 5815 5811 5808 5805 5802 5800 5797 5794 5793 5792 5791
5897 5897 5896 5894 5893 5891 5890 5889 5888 5887 5885 5883 5881 5879 5876 5874 5871 5868 5864 5861 5858 5854 5850 5845 5841 5836 5832 5828 5824 5820 5817 5813 5810 5806 5803 5799 5795 5793 5790 5787 5785 5783 5782
5897 5896 5895 5893 5892 5891 5889 5888 5886 5885 5884 5881 5880 5878 5875 5872 5868 5865 5862 5858 5855 5851 5846 5841 5836 5831 5827 5823 5819 5815 5811 5807 5803 5799 5796 5792 5789 5786 5783 5781 5778 5775 5773
5897 5896 5895 5893 5891 5890 5888 5886 5885 5883 5881 5880 5878 5876 5873 5870 5867 5863 5859 5856 5850 5846 5841 5836 5830 5826 5821 5817 5813 5808 5804 5800 5796 5792 5788 5785 5782 5779 5776 5773 5771 5768 5766
5896 5895 5894 5892 5890 5888 5886 5884 5883 5881 5879 5877 5876 5873 5871 5868 5865 5861 5857 5852 5847 5841 5836 5830 5825 5820 5814 5810 5805 5800 5795 5791 5787 5783 5779 5775 5772 5769 5767 5764 5761 5759 5758
5896 5895 5893 5892 5890 5888 5885 5882 5880 5878 5876 5874 5872 5870 5868 5865 5862 5858 5853 5849 5843 5837 5831 5824 5819 5812 5808 5801 5796 5790 5786 5781 5777 5773 5769 5766 5762 5758 5756 5754 5751 5748 5746
5896 5895 5893 5892 5890 5888 5885 5881 5879 5877 5874 5871 5869 5867 5864 5861 5857 5854 5849 5844 5838 5832 5826 5819 5812 5806 5798 5793 5786 5781 5775 5770 5766 5763 5759 5755 5751 5748 5744 5741 5738 5736 5734
5896 5895 5893 5891 5889 5887 5884 5882 5879 5876 5874 5871 5868 5864 5860 5857 5851 5848 5844 5839 5833 5826 5819 5812 5805 5797 5790 5784 5777 5771 5766 5760 5755 5751 5747 5743 5739 5735 5732 5728 5726 5723 5720
5895 5893 5892 5890 5888 5885 5883 5880 5878 5875 5872 5870 5867 5864 5860 5855 5849 5841 5838 5833 5826 5818 5812 5804 5796 5788 5781 5774 5767 5761 5755 5749 5744 5740 5735 5730 5726 5721 5718 5714 5711 5708 5705
5894 5892 5890 5888 5886 5884 5882 5879 5876 5873 5870 5867 5863 5859 5856 5852 5848 5843 5832 5826 5818 5811 5804 5794 5787 5778 5771 5765 5757 5751 5744 5738 5733 5727 5721 5717 5712 5707 5702 5699 5694 5691 5688
5893 5891 5889 5887 5885 5882 5880 5877 5874 5871 5867 5864 5860 5856 5851 5846 5840 5837 5832 5824 5814 5804 5795 5786 5777 5769 5761 5753 5745 5739 5733 5727 5721 5715 5709 5703 5698 5692 5687 5682 5678 5673 5669
5891 5888 5886 5884 5882 5880 5877 5874 5871 5867 5863 5860 5855 5850 5845 5839 5833 5828 5823 5817 5811 5802 5791 5779 5770 5760 5750 5741 5733 5727 5720 5712 5706 5700 5694 5688 5682 5677 5671 5666 5661 5655 5650
5887 5885 5883 5881 5879 5876 5873 5870 5867 5863 5859 5854 5849 5844 5838 5832 5826 5820 5814 5808 5803 5795 5785 5772 5761 5750 5740 5731 5720 5714 5708 5700 5694 5687 5680 5673 5668 5661 5654 5647 5641 5634 5628
5883 5881 5879 5877 5875 5872 5869 5865 5861 5857 5853 5848 5843 5838 5832 5825 5818 5812 5805 5798 5794 5786 5778 5763 5754 5741 5731 5719 5709 5702 5696 5688 5680 5672 5665 5658 5651 5643 5636 5627 5618 5610 5603
5878 5876 5875 5872 5870 5867 5864 5860 5856 5851 5847 5842 5837 5831 5825 5818 5811 5803 5795 5787 5779 5774 5769 5756 5745 5732 5719 5707 5698 5692 5684 5675 5666 5657 5650 5642 5633 5624 5614 5604 5594 5586 5581
5874 5872 5870 5867 5865 5861 5858 5854 5850 5845 5840 5835 5831 5824 5818 5811 5803 5795 5787 5778 5768 5760 5754 5743 5733 5721 5708 5696 5686 5679 5670 5661 5652 5643 5634 5625 5614 5603 5590 5580 5573 5568 5563
5868 5866 5864 5861 5859 5856 5852 5848 5844 5839 5834 5829 5824 5817 5810 5803 5794 5786 5777 5768 5759 5748 5740 5734 5719 5707 5697 5685 5676 5666 5658 5649 5639 5628 5617 5607 5595 5582 5571 5564 5559 5555 5553
5861 5859 5857 5855 5852 5849 5845 5841 5836 5832 5826 5821 5815 5809 5801 5794 5786 5776 5767 5758 5749 5738 5727 5719 5709 5697 5685 5673 5664 5656 5644 5632 5622 5611 5599 5588 5577 5566 5557 5552 5548 5544 5542
5855 5852 5850 5847 5844 5841 5837 5832 5827 5822 5817 5812 5805 5799 5792 5785 5776 5767 5757 5748 5739 5727 5716 5708 5697 5686 5673 5661 5654 5642 5631 5618 5606 5596 5583 5571 5560 5552 5547 5542 5538 5534 5531
5847 5844 5842 5839 5835 5832 5827 5823 5818 5813 5807 5801 5795 5789 5782 5775 5767 5758 5748 5738 5727 5717 5707 5696 5684 5672 5660 5651 5642 5634 5623 5607 5593 5579 5566 5555 5548 5542 5538 5534 5529 5526 5521
5837 5835 5833 5830 5826 5822 5818 5813 5808 5803 5797 5790 5784 5778 5771 5763 5755 5746 5736 5726 5716 5707 5696 5683 5671 5659 5649 5638 5629 5620 5610 5600 5585 5569 5556 5545 5540 5534 5529 5525 5520 5515 5512
5827 5824 5822 5819 5816 5812 5807 5803 5798 5792 5786 5779 5772 5766 5759 5751 5742 5732 5722 5714 5703 5692 5681 5670 5659 5646 5637 5628 5619 5608 5597 5586 5578 5562 5549 5541 5531 5526 5520 5516 5511 5507 5501
5815 5813 5811 5808 5804 5800 5796 5792 5786 5780 5774 5768 5762 5755 5746 5737 5729 5720 5710 5699 5688 5677 5668 5658 5647 5636 5627 5616 5607 5597 5584 5571 5558 5545 5535 5530 5522 5519 5513 5507 5500 5496 5491
5804 5801 5799 5796 5793 5788 5784 5779 5774 5769 5762 5756 5750 5743 5734 5725 5717 5708 5698 5687 5677 5665 5656 5644 5632 5622 5613 5604 5594 5583 5572 5561 5546 5533 5522 5519 5513 5508 5503 5498 5490 5485 5479
5792 5789 5787 5785 5781 5776 5771 5767 5762 5757 5750 5744 5736 5730 5723 5714 5705 5696 5687 5676 5665 5653 5641 5630 5620 5610 5600 5591 5580 5569 5558 5546 5536 5524 5513 5508 5503 5497 5492 5488 5479 5472 5465
5778 5776 5774 5772 5768 5763 5759 5754 5750 5744 5737 5730 5723 5716 5710 5701 5692 5684 5673 5664 5655 5642 5631 5618 5607 5596 5587 5578 5567 5557 5545 5533 5521 5515 5504 5500 5493 5485 5483 5477 5469 5459 5452